Time,TemperatureF,DewpointF,PressureIn,WindDirection,WindDirectionDegrees,WindSpeedMPH,WindSpeedGustMPH,Humidity,HourlyPrecipIn,Conditions,Clouds,dailyrainin,SoftwareType,DateUTC
2013-06-30 00:01:00,78.8,77.2,29.78,SW,225,2.0,4.0,95,0.00,,,0.00,meteohub,2013-06-30 04:01:00,
2013-06-30 00:02:00,78.8,77.2,29.78,South,180,3.0,4.0,95,0.00,,,0.00,meteohub,2013-06-30 04:02:00,
2013-06-30 00:03:00,78.8,77.2,29.78,South,180,3.0,4.0,95,0.00,,,0.00,meteohub,2013-06-30 04:03:00,
2013-06-30 00:06:00,78.8,77.0,29.78,South,180,2.0,4.0,94,0.00,,,0.00,meteohub,2013-06-30 04:06:00,
2013-06-30 00:11:00,78.6,76.8,29.78,South,180,3.0,4.0,94,0.00,,,0.00,meteohub,2013-06-30 04:11:00,
2013-06-30 00:16:00,78.8,76.6,29.78,SW,225,2.0,3.0,93,0.00,,,0.00,meteohub,2013-06-30 04:16:00,
2013-06-30 00:21:00,78.8,76.6,29.78,South,180,3.0,4.0,93,0.00,,,0.00,meteohub,2013-06-30 04:21:00,
2013-06-30 00:26:00,78.8,76.3,29.78,South,180,4.0,5.0,92,0.00,,,0.00,meteohub,2013-06-30 04:26:00,
2013-06-30 00:31:00,79.0,76.1,29.77,SW,225,2.0,7.0,91,0.00,,,0.00,meteohub,2013-06-30 04:31:00,
2013-06-30 00:36:00,79.0,76.1,29.77,SW,225,4.0,7.0,91,0.00,,,0.00,meteohub,2013-06-30 04:36:00,
2013-06-30 00:41:00,79.0,76.1,29.78,SW,225,2.0,7.0,91,0.00,,,0.00,meteohub,2013-06-30 04:41:00,
2013-06-30 00:46:00,79.0,76.1,29.78,South,180,3.0,5.0,91,0.00,,,0.00,meteohub,2013-06-30 04:46:00,
2013-06-30 00:52:00,79.0,76.5,29.77,South,180,3.0,5.0,92,0.00,,,0.00,meteohub,2013-06-30 04:52:00,
2013-06-30 00:57:00,79.0,76.5,29.78,SW,225,3.0,4.0,92,0.00,,,0.00,meteohub,2013-06-30 04:57:00,
2013-06-30 01:02:00,78.8,76.6,29.77,South,180,1.0,4.0,93,0.00,,,0.00,meteohub,2013-06-30 05:02:00,
2013-06-30 01:07:00,78.6,76.5,29.77,SW,225,2.0,4.0,93,0.00,,,0.00,meteohub,2013-06-30 05:07:00,
2013-06-30 01:12:00,78.4,76.6,29.77,SW,225,4.0,4.0,94,0.00,,,0.00,meteohub,2013-06-30 05:12:00,
2013-06-30 01:17:00,78.4,76.6,29.77,South,180,1.0,4.0,94,0.00,,,0.00,meteohub,2013-06-30 05:17:00,
2013-06-30 01:22:00,78.3,76.5,29.77,SE,135,1.0,4.0,94,0.00,,,0.00,meteohub,2013-06-30 05:22:00,
2013-06-30 01:27:00,78.3,76.6,29.77,South,180,0.0,4.0,95,0.00,,,0.00,meteohub,2013-06-30 05:27:00,
2013-06-30 01:32:00,78.1,76.5,29.77,SW,225,1.0,3.0,95,0.00,,,0.00,meteohub,2013-06-30 05:32:00,
2013-06-30 01:37:00,78.1,76.8,29.76,SW,225,1.0,3.0,96,0.00,,,0.00,meteohub,2013-06-30 05:37:00,
2013-06-30 01:42:00,78.1,76.8,29.76,East,90,1.0,3.0,96,0.00,,,0.00,meteohub,2013-06-30 05:42:00,
2013-06-30 01:47:00,77.9,76.6,29.76,SE,135,1.0,3.0,96,0.00,,,0.00,meteohub,2013-06-30 05:47:00,
2013-06-30 01:52:00,77.9,76.6,29.76,NW,315,1.0,3.0,96,0.00,,,0.00,meteohub,2013-06-30 05:52:00,
2013-06-30 01:57:00,77.9,77.0,29.75,South,180,2.0,2.0,97,0.00,,,0.00,meteohub,2013-06-30 05:57:00,
2013-06-30 02:02:00,77.9,77.0,29.76,South,180,2.0,2.0,97,0.00,,,0.00,meteohub,2013-06-30 06:02:00,
2013-06-30 02:07:00,77.9,77.0,29.76,South,180,2.0,2.0,97,0.00,,,0.00,meteohub,2013-06-30 06:07:00,
2013-06-30 02:12:00,77.9,77.4,29.76,SW,225,2.0,2.0,98,0.00,,,0.00,meteohub,2013-06-30 06:12:00,
2013-06-30 02:17:00,77.9,77.4,29.76,South,180,2.0,2.0,98,0.00,,,0.00,meteohub,2013-06-30 06:17:00,
2013-06-30 02:22:00,77.9,77.4,29.76,South,180,2.0,3.0,98,0.00,,,0.00,meteohub,2013-06-30 06:22:00,
2013-06-30 02:27:00,77.9,77.4,29.75,South,180,2.0,3.0,98,0.00,,,0.00,meteohub,2013-06-30 06:27:00,
2013-06-30 02:32:00,77.9,77.5,29.76,SW,225,2.0,2.0,99,0.00,,,0.00,meteohub,2013-06-30 06:32:00,
2013-06-30 02:37:00,77.7,77.4,29.76,South,180,1.0,2.0,99,0.00,,,0.00,meteohub,2013-06-30 06:37:00,
2013-06-30 02:42:00,77.7,77.4,29.76,SW,225,2.0,2.0,99,0.00,,,0.00,meteohub,2013-06-30 06:42:00,
2013-06-30 02:47:00,77.9,77.5,29.76,South,180,2.0,2.0,99,0.00,,,0.00,meteohub,2013-06-30 06:47:00,
2013-06-30 02:52:00,77.7,77.4,29.76,SW,225,2.0,2.0,99,0.00,,,0.00,meteohub,2013-06-30 06:52:00,
2013-06-30 02:58:00,77.9,77.5,29.76,SSW,203,2.0,4.0,99,0.00,,,0.00,meteohub,2013-06-30 06:58:00,
2013-06-30 03:03:00,78.1,77.5,29.75,South,180,2.0,4.0,98,0.00,,,0.00,meteohub,2013-06-30 07:03:00,
2013-06-30 03:08:00,78.1,77.5,29.75,South,180,2.0,4.0,98,0.00,,,0.00,meteohub,2013-06-30 07:08:00,
2013-06-30 03:13:00,78.3,77.7,29.74,South,180,2.0,4.0,98,0.00,,,0.00,meteohub,2013-06-30 07:13:00,
2013-06-30 03:18:00,78.3,77.7,29.75,SW,225,2.0,4.0,98,0.00,,,0.00,meteohub,2013-06-30 07:18:00,
2013-06-30 03:23:00,78.3,77.4,29.74,SSW,203,2.0,3.0,97,0.00,,,0.00,meteohub,2013-06-30 07:23:00,
2013-06-30 03:28:00,78.3,77.4,29.75,South,180,2.0,3.0,97,0.00,,,0.00,meteohub,2013-06-30 07:28:00,
2013-06-30 03:34:00,78.3,77.4,29.74,SSW,203,4.0,4.0,97,0.00,,,0.00,meteohub,2013-06-30 07:34:00,
2013-06-30 03:39:00,78.3,77.0,29.74,SW,225,2.0,4.0,96,0.00,,,0.00,meteohub,2013-06-30 07:39:00,
2013-06-30 03:44:00,78.3,77.0,29.75,SW,225,2.0,4.0,96,0.00,,,0.00,meteohub,2013-06-30 07:44:00,
2013-06-30 03:49:00,78.1,76.8,29.74,South,180,2.0,4.0,96,0.00,,,0.00,meteohub,2013-06-30 07:49:00,
2013-06-30 03:54:00,78.1,76.8,29.75,SW,225,2.0,2.0,96,0.00,,,0.00,meteohub,2013-06-30 07:54:00,
2013-06-30 03:59:00,77.9,77.0,29.75,SW,225,2.0,2.0,97,0.00,,,0.00,meteohub,2013-06-30 07:59:00,
2013-06-30 04:04:00,77.9,77.0,29.75,South,180,2.0,2.0,97,0.00,,,0.00,meteohub,2013-06-30 08:04:00,
2013-06-30 04:09:00,77.9,77.0,29.75,West,270,2.0,2.0,97,0.00,,,0.00,meteohub,2013-06-30 08:09:00,
2013-06-30 04:14:00,77.9,77.0,29.75,South,180,2.0,2.0,97,0.00,,,0.00,meteohub,2013-06-30 08:14:00,
2013-06-30 04:20:00,78.1,77.2,29.75,South,180,2.0,2.0,97,0.00,,,0.00,meteohub,2013-06-30 08:20:00,
2013-06-30 04:25:00,77.9,77.0,29.75,South,180,2.0,2.0,97,0.00,,,0.00,meteohub,2013-06-30 08:25:00,
2013-06-30 04:30:00,77.9,77.4,29.75,South,180,2.0,2.0,98,0.00,,,0.00,meteohub,2013-06-30 08:30:00,
2013-06-30 04:35:00,78.1,77.5,29.75,South,180,1.0,2.0,98,0.00,,,0.00,meteohub,2013-06-30 08:35:00,
2013-06-30 04:40:00,78.1,77.5,29.75,West,270,2.0,2.0,98,0.00,,,0.00,meteohub,2013-06-30 08:40:00,
2013-06-30 04:45:00,78.1,77.5,29.74,SW,225,2.0,2.0,98,0.00,,,0.00,meteohub,2013-06-30 08:45:00,
2013-06-30 04:50:00,78.1,77.5,29.74,South,180,2.0,2.0,98,0.00,,,0.00,meteohub,2013-06-30 08:50:00,
2013-06-30 04:55:00,78.1,77.5,29.74,South,180,1.0,2.0,98,0.00,,,0.00,meteohub,2013-06-30 08:55:00,
2013-06-30 05:01:00,77.9,77.5,29.74,South,180,1.0,3.0,99,0.00,,,0.00,meteohub,2013-06-30 09:01:00,
2013-06-30 05:06:00,77.9,77.5,29.74,South,180,1.0,3.0,99,0.00,,,0.00,meteohub,2013-06-30 09:06:00,
2013-06-30 05:11:00,77.9,77.5,29.74,South,180,0.0,3.0,99,0.00,,,0.00,meteohub,2013-06-30 09:11:00,
2013-06-30 05:16:00,77.7,77.4,29.75,SW,225,0.0,2.0,99,0.00,,,0.00,meteohub,2013-06-30 09:16:00,
2013-06-30 05:21:00,77.7,77.4,29.75,SW,225,1.0,2.0,99,0.00,,,0.00,meteohub,2013-06-30 09:21:00,
2013-06-30 05:26:00,77.7,77.4,29.75,South,180,2.0,2.0,99,0.00,,,0.00,meteohub,2013-06-30 09:26:00,
2013-06-30 05:31:00,77.7,77.4,29.75,SW,225,1.0,2.0,99,0.00,,,0.00,meteohub,2013-06-30 09:31:00,
2013-06-30 05:36:00,77.7,77.4,29.75,SW,225,1.0,2.0,99,0.00,,,0.00,meteohub,2013-06-30 09:36:00,
2013-06-30 05:41:00,77.7,77.4,29.75,South,180,2.0,2.0,99,0.00,,,0.00,meteohub,2013-06-30 09:41:00,
2013-06-30 05:46:00,77.7,77.4,29.76,South,180,2.0,2.0,99,0.00,,,0.00,meteohub,2013-06-30 09:46:00,
2013-06-30 05:51:00,77.7,77.4,29.76,SW,225,2.0,2.0,99,0.00,,,0.00,meteohub,2013-06-30 09:51:00,
2013-06-30 05:57:00,77.9,77.5,29.76,South,180,1.0,2.0,99,0.00,,,0.00,meteohub,2013-06-30 09:57:00,
2013-06-30 06:02:00,77.9,77.5,29.75,South,180,0.0,2.0,99,0.00,,,0.00,meteohub,2013-06-30 10:02:00,
2013-06-30 06:07:00,77.7,77.4,29.76,South,180,1.0,2.0,99,0.00,,,0.00,meteohub,2013-06-30 10:07:00,
2013-06-30 06:12:00,77.5,77.2,29.76,South,180,1.0,2.0,99,0.00,,,0.00,meteohub,2013-06-30 10:12:00,
2013-06-30 06:17:00,77.5,77.2,29.76,South,180,1.0,1.0,99,0.00,,,0.00,meteohub,2013-06-30 10:17:00,
2013-06-30 06:22:00,77.5,77.2,29.76,SW,225,1.0,2.0,99,0.00,,,0.00,meteohub,2013-06-30 10:22:00,
2013-06-30 06:27:00,77.5,77.2,29.76,SSW,203,1.0,2.0,99,0.00,,,0.00,meteohub,2013-06-30 10:27:00,
2013-06-30 06:32:00,77.5,77.2,29.75,SW,225,2.0,2.0,99,0.00,,,0.00,meteohub,2013-06-30 10:32:00,
2013-06-30 06:37:00,77.7,77.4,29.77,SW,225,2.0,2.0,99,0.00,,,0.00,meteohub,2013-06-30 10:37:00,
2013-06-30 06:42:00,77.9,77.5,29.76,SW,225,2.0,2.0,99,0.00,,,0.00,meteohub,2013-06-30 10:42:00,
2013-06-30 06:47:00,78.1,77.7,29.76,South,180,1.0,3.0,99,0.00,,,0.00,meteohub,2013-06-30 10:47:00,
2013-06-30 06:52:00,78.3,77.9,29.76,South,180,2.0,3.0,99,0.00,,,0.00,meteohub,2013-06-30 10:52:00,
2013-06-30 06:57:00,78.4,78.1,29.76,SW,225,3.0,3.0,99,0.00,,,0.00,meteohub,2013-06-30 10:57:00,
2013-06-30 07:02:00,78.6,78.3,29.76,South,180,3.0,3.0,99,0.00,,,0.00,meteohub,2013-06-30 11:02:00,
2013-06-30 07:07:00,78.8,78.4,29.76,SE,135,4.0,5.0,99,0.00,,,0.00,meteohub,2013-06-30 11:07:00,
2013-06-30 07:12:00,79.0,78.6,29.76,South,180,4.0,5.0,99,0.00,,,0.00,meteohub,2013-06-30 11:12:00,
2013-06-30 07:17:00,79.2,78.8,29.76,SW,225,3.0,4.0,99,0.00,,,0.00,meteohub,2013-06-30 11:17:00,
2013-06-30 07:22:00,79.5,79.2,29.77,SW,225,2.0,4.0,99,0.00,,,0.00,meteohub,2013-06-30 11:22:00,
2013-06-30 07:27:00,80.1,79.7,29.77,South,180,3.0,4.0,99,0.00,,,0.00,meteohub,2013-06-30 11:27:00,
2013-06-30 07:32:00,80.4,79.9,29.77,SW,225,3.0,4.0,98,0.00,,,0.00,meteohub,2013-06-30 11:32:00,
2013-06-30 07:37:00,81.0,79.7,29.78,South,180,2.0,4.0,96,0.00,,,0.00,meteohub,2013-06-30 11:37:00,
2013-06-30 07:42:00,82.0,80.1,29.77,South,180,2.0,5.0,94,0.00,,,0.00,meteohub,2013-06-30 11:42:00,
2013-06-30 07:47:00,82.9,80.4,29.77,SW,225,4.0,5.0,92,0.00,,,0.00,meteohub,2013-06-30 11:47:00,
2013-06-30 07:52:00,83.5,80.6,29.77,South,180,4.0,5.0,91,0.00,,,0.00,meteohub,2013-06-30 11:52:00,
2013-06-30 07:57:00,84.0,80.4,29.78,SW,225,4.0,6.0,89,0.00,,,0.00,meteohub,2013-06-30 11:57:00,
2013-06-30 08:02:00,84.6,80.6,29.78,SW,225,4.0,6.0,88,0.00,,,0.00,meteohub,2013-06-30 12:02:00,
2013-06-30 08:07:00,84.9,81.0,29.78,SW,225,3.0,6.0,88,0.00,,,0.00,meteohub,2013-06-30 12:07:00,
2013-06-30 08:12:00,85.1,80.4,29.78,South,180,4.0,5.0,86,0.00,,,0.00,meteohub,2013-06-30 12:12:00,
2013-06-30 08:17:00,85.8,80.8,29.78,SW,225,4.0,5.0,85,0.00,,,0.00,meteohub,2013-06-30 12:17:00,
2013-06-30 08:22:00,86.0,80.6,29.78,South,180,4.0,5.0,84,0.00,,,0.00,meteohub,2013-06-30 12:22:00,
2013-06-30 08:27:00,86.2,80.8,29.78,SW,225,6.0,8.0,84,0.00,,,0.00,meteohub,2013-06-30 12:27:00,
2013-06-30 08:32:00,86.4,80.6,29.78,SW,225,5.0,8.0,83,0.00,,,0.00,meteohub,2013-06-30 12:32:00,
2013-06-30 08:37:00,86.7,81.0,29.78,South,180,4.0,9.0,83,0.00,,,0.00,meteohub,2013-06-30 12:37:00,
2013-06-30 08:42:00,87.3,81.1,29.78,South,180,5.0,9.0,82,0.00,,,0.00,meteohub,2013-06-30 12:42:00,
2013-06-30 08:47:00,88.0,81.3,29.78,East,90,3.0,9.0,81,0.00,,,0.00,meteohub,2013-06-30 12:47:00,
2013-06-30 08:52:00,88.2,80.1,29.78,SW,225,8.0,8.0,77,0.00,,,0.00,meteohub,2013-06-30 12:52:00,
2013-06-30 08:57:00,88.2,80.1,29.78,SW,225,4.0,8.0,77,0.00,,,0.00,meteohub,2013-06-30 12:57:00,
2013-06-30 09:02:00,88.2,79.7,29.78,SW,225,8.0,8.0,76,0.00,,,0.00,meteohub,2013-06-30 13:02:00,
2013-06-30 09:07:00,88.3,79.9,29.79,West,270,4.0,8.0,76,0.00,,,0.00,meteohub,2013-06-30 13:07:00,
2013-06-30 09:12:00,88.0,78.6,29.78,South,180,8.0,9.0,74,0.00,,,0.00,meteohub,2013-06-30 13:12:00,
2013-06-30 09:17:00,88.0,78.6,29.78,South,180,8.0,9.0,74,0.00,,,0.00,meteohub,2013-06-30 13:17:00,
2013-06-30 09:22:00,87.8,78.4,29.78,SW,225,8.0,9.0,74,0.00,,,0.00,meteohub,2013-06-30 13:22:00,
2013-06-30 09:27:00,88.0,78.3,29.78,NNW,338,8.0,15.0,73,0.00,,,0.00,meteohub,2013-06-30 13:27:00,
2013-06-30 09:32:00,88.5,78.8,29.78,SW,225,5.0,15.0,73,0.00,,,0.00,meteohub,2013-06-30 13:32:00,
2013-06-30 09:37:00,89.2,78.6,29.78,SW,225,10.0,15.0,71,0.00,,,0.00,meteohub,2013-06-30 13:37:00,
2013-06-30 09:42:00,89.2,79.0,29.78,SE,135,3.0,13.0,72,0.00,,,0.00,meteohub,2013-06-30 13:42:00,
2013-06-30 09:47:00,89.1,78.1,29.78,SW,225,13.0,13.0,70,0.00,,,0.00,meteohub,2013-06-30 13:47:00,
2013-06-30 09:52:00,89.2,78.6,29.78,South,180,6.0,13.0,71,0.00,,,0.00,meteohub,2013-06-30 13:52:00,
2013-06-30 09:57:00,88.9,77.9,29.78,South,180,7.0,13.0,70,0.00,,,0.00,meteohub,2013-06-30 13:57:00,
2013-06-30 10:02:00,89.1,77.5,29.78,SW,225,7.0,13.0,69,0.00,,,0.00,meteohub,2013-06-30 14:02:00,
2013-06-30 10:07:00,90.0,78.8,29.78,SE,135,4.0,10.0,70,0.00,,,0.00,meteohub,2013-06-30 14:07:00,
2013-06-30 10:12:00,89.6,77.5,29.78,SW,225,9.0,10.0,68,0.00,,,0.00,meteohub,2013-06-30 14:12:00,
2013-06-30 10:17:00,89.2,77.7,29.78,West,270,8.0,10.0,69,0.00,,,0.00,meteohub,2013-06-30 14:17:00,
2013-06-30 10:22:00,90.0,77.5,29.79,SW,225,5.0,10.0,67,0.00,,,0.00,meteohub,2013-06-30 14:22:00,
2013-06-30 10:27:00,90.3,77.4,29.79,South,180,9.0,10.0,66,0.00,,,0.00,meteohub,2013-06-30 14:27:00,
2013-06-30 10:32:00,89.8,76.8,29.78,SW,225,9.0,10.0,66,0.00,,,0.00,meteohub,2013-06-30 14:32:00,
2013-06-30 10:37:00,88.9,77.0,29.78,South,180,5.0,10.0,68,0.00,,,0.00,meteohub,2013-06-30 14:37:00,
2013-06-30 10:42:00,88.3,76.8,29.79,South,180,11.0,11.0,69,0.00,,,0.00,meteohub,2013-06-30 14:42:00,
2013-06-30 10:47:00,88.7,76.8,29.78,SW,225,9.0,11.0,68,0.00,,,0.00,meteohub,2013-06-30 14:47:00,
2013-06-30 10:52:00,88.5,76.6,29.79,SW,225,8.0,14.0,68,0.00,,,0.00,meteohub,2013-06-30 14:52:00,
2013-06-30 10:57:00,88.9,77.4,29.78,South,180,4.0,14.0,69,0.00,,,0.00,meteohub,2013-06-30 14:57:00,
2013-06-30 11:02:00,88.7,76.8,29.79,SW,225,9.0,14.0,68,0.00,,,0.00,meteohub,2013-06-30 15:02:00,
2013-06-30 11:07:00,88.0,76.5,29.79,SE,135,11.0,11.0,69,0.00,,,0.00,meteohub,2013-06-30 15:07:00,
2013-06-30 11:12:00,86.2,76.1,29.79,South,180,3.0,16.0,72,0.00,,,0.00,meteohub,2013-06-30 15:12:00,
2013-06-30 11:17:00,85.3,76.8,29.79,East,90,5.0,16.0,76,0.00,,,0.00,meteohub,2013-06-30 15:17:00,
2013-06-30 11:22:00,84.6,77.7,29.79,South,180,4.0,16.0,80,0.00,,,0.00,meteohub,2013-06-30 15:22:00,
2013-06-30 11:27:00,85.8,79.3,29.79,South,180,4.0,9.0,81,0.00,,,0.00,meteohub,2013-06-30 15:27:00,
2013-06-30 11:32:00,87.6,79.5,29.79,South,180,7.0,9.0,77,0.00,,,0.00,meteohub,2013-06-30 15:32:00,
2013-06-30 11:37:00,88.9,79.9,29.79,ESE,113,7.0,9.0,75,0.00,,,0.00,meteohub,2013-06-30 15:37:00,
2013-06-30 11:42:00,89.6,79.7,29.79,South,180,4.0,7.0,73,0.00,,,0.00,meteohub,2013-06-30 15:42:00,
2013-06-30 11:47:00,88.5,77.0,29.79,South,180,11.0,11.0,69,0.00,,,0.00,meteohub,2013-06-30 15:47:00,
2013-06-30 11:52:00,86.9,78.8,29.79,South,180,3.0,11.0,77,0.00,,,0.00,meteohub,2013-06-30 15:52:00,
2013-06-30 11:57:00,86.5,80.4,29.78,SE,135,3.0,11.0,82,0.00,,,0.00,meteohub,2013-06-30 15:57:00,
2013-06-30 12:02:00,87.8,80.4,29.78,NE,45,5.0,11.0,79,0.00,,,0.00,meteohub,2013-06-30 16:02:00,
2013-06-30 12:07:00,88.7,80.2,29.78,South,180,3.0,7.0,76,0.00,,,0.00,meteohub,2013-06-30 16:07:00,
2013-06-30 12:12:00,89.6,79.3,29.78,North,0,10.0,10.0,72,0.00,,,0.00,meteohub,2013-06-30 16:12:00,
2013-06-30 12:17:00,90.5,80.2,29.79,SE,135,3.0,10.0,72,0.00,,,0.00,meteohub,2013-06-30 16:17:00,
2013-06-30 12:22:00,91.2,79.2,29.78,South,180,4.0,10.0,68,0.00,,,0.00,meteohub,2013-06-30 16:22:00,
2013-06-30 12:27:00,91.8,77.4,29.79,West,270,9.0,10.0,63,0.00,,,0.00,meteohub,2013-06-30 16:27:00,
2013-06-30 12:32:00,92.1,76.3,29.78,SW,225,10.0,13.0,60,0.00,,,0.00,meteohub,2013-06-30 16:32:00,
2013-06-30 12:37:00,92.5,77.0,29.78,South,180,10.0,13.0,61,0.00,,,0.00,meteohub,2013-06-30 16:37:00,
2013-06-30 12:42:00,92.7,77.2,29.78,South,180,7.0,13.0,61,0.00,,,0.00,meteohub,2013-06-30 16:42:00,
2013-06-30 12:47:00,92.7,77.2,29.78,SW,225,6.0,10.0,61,0.00,,,0.00,meteohub,2013-06-30 16:47:00,
2013-06-30 12:52:00,92.8,76.8,29.78,South,180,9.0,11.0,60,0.00,,,0.00,meteohub,2013-06-30 16:52:00,
2013-06-30 12:57:00,93.2,77.7,29.78,West,270,4.0,11.0,61,0.00,,,0.00,meteohub,2013-06-30 16:57:00,
2013-06-30 13:02:00,94.1,77.5,29.78,NW,315,10.0,11.0,59,0.00,,,0.00,meteohub,2013-06-30 17:02:00,
2013-06-30 13:07:00,93.6,76.6,29.77,South,180,6.0,12.0,58,0.00,,,0.00,meteohub,2013-06-30 17:07:00,
2013-06-30 13:12:00,93.4,76.8,29.78,SW,225,8.0,12.0,59,0.00,,,0.00,meteohub,2013-06-30 17:12:00,
2013-06-30 13:17:00,93.0,77.0,29.78,SW,225,7.0,12.0,60,0.00,,,0.00,meteohub,2013-06-30 17:17:00,
2013-06-30 13:22:00,93.2,74.7,29.77,South,180,11.0,12.0,55,0.00,,,0.00,meteohub,2013-06-30 17:22:00,
2013-06-30 13:27:00,92.7,76.8,29.77,East,90,5.0,15.0,60,0.00,,,0.00,meteohub,2013-06-30 17:27:00,
2013-06-30 13:32:00,92.7,77.2,29.77,SE,135,5.0,15.0,61,0.00,,,0.00,meteohub,2013-06-30 17:32:00,
2013-06-30 13:37:00,93.0,77.0,29.77,SW,225,3.0,15.0,60,0.00,,,0.00,meteohub,2013-06-30 17:37:00,
2013-06-30 13:42:00,93.2,77.2,29.76,South,180,4.0,15.0,60,0.00,,,0.00,meteohub,2013-06-30 17:42:00,
2013-06-30 13:47:00,92.7,78.3,29.77,East,90,5.0,12.0,63,0.00,,,0.00,meteohub,2013-06-30 17:47:00,
2013-06-30 13:52:00,92.5,77.5,29.77,SW,225,8.0,12.0,62,0.00,,,0.00,meteohub,2013-06-30 17:52:00,
2013-06-30 13:57:00,91.4,77.0,29.76,North,0,4.0,11.0,63,0.00,,,0.00,meteohub,2013-06-30 17:57:00,
2013-06-30 14:02:00,92.3,76.5,29.76,South,180,8.0,11.0,60,0.00,,,0.00,meteohub,2013-06-30 18:02:00,
2013-06-30 14:07:00,92.7,74.7,29.77,SW,225,11.0,15.0,56,0.00,,,0.00,meteohub,2013-06-30 18:07:00,
2013-06-30 14:12:00,92.5,75.6,29.76,SSE,158,7.0,15.0,58,0.00,,,0.00,meteohub,2013-06-30 18:12:00,
2013-06-30 14:17:00,91.2,73.8,29.77,South,180,11.0,15.0,57,0.00,,,0.00,meteohub,2013-06-30 18:17:00,
2013-06-30 14:22:00,89.2,75.4,29.76,SW,225,15.0,15.0,64,0.00,,,0.00,meteohub,2013-06-30 18:22:00,
2013-06-30 14:27:00,87.6,76.6,29.76,South,180,8.0,15.0,70,0.00,,,0.00,meteohub,2013-06-30 18:27:00,
2013-06-30 14:32:00,87.6,78.3,29.76,NW,315,10.0,15.0,74,0.00,,,0.00,meteohub,2013-06-30 18:32:00,
2013-06-30 14:37:00,88.0,79.9,29.76,SSE,158,6.0,15.0,77,0.00,,,0.00,meteohub,2013-06-30 18:37:00,
2013-06-30 14:42:00,89.1,78.4,29.76,SW,225,9.0,15.0,71,0.00,,,0.00,meteohub,2013-06-30 18:42:00,
2013-06-30 14:47:00,89.8,78.3,29.76,South,180,7.0,14.0,69,0.00,,,0.00,meteohub,2013-06-30 18:47:00,
2013-06-30 14:52:00,90.0,77.5,29.76,South,180,8.0,14.0,67,0.00,,,0.00,meteohub,2013-06-30 18:52:00,
2013-06-30 14:57:00,89.4,77.5,29.75,SW,225,6.0,14.0,68,0.00,,,0.00,meteohub,2013-06-30 18:57:00,
2013-06-30 15:02:00,90.5,78.4,29.75,SW,225,6.0,10.0,68,0.00,,,0.00,meteohub,2013-06-30 19:02:00,
2013-06-30 15:07:00,90.7,77.7,29.75,South,180,14.0,14.0,66,0.00,,,0.00,meteohub,2013-06-30 19:07:00,
2013-06-30 15:12:00,90.0,77.9,29.75,SW,225,7.0,14.0,68,0.00,,,0.00,meteohub,2013-06-30 19:12:00,
2013-06-30 15:17:00,90.1,78.1,29.75,SW,225,7.0,17.0,68,0.00,,,0.00,meteohub,2013-06-30 19:17:00,
2013-06-30 15:22:00,88.9,77.0,29.75,SW,225,8.0,17.0,68,0.00,,,0.00,meteohub,2013-06-30 19:22:00,
2013-06-30 15:27:00,88.2,76.6,29.75,South,180,6.0,17.0,69,0.00,,,0.00,meteohub,2013-06-30 19:27:00,
2013-06-30 15:32:00,87.6,76.1,29.75,South,180,4.0,11.0,69,0.00,,,0.00,meteohub,2013-06-30 19:32:00,
2013-06-30 15:37:00,87.4,75.9,29.75,South,180,6.0,10.0,69,0.00,,,0.00,meteohub,2013-06-30 19:37:00,
2013-06-30 15:42:00,87.3,75.9,29.76,South,180,6.0,9.0,69,0.00,,,0.00,meteohub,2013-06-30 19:42:00,
2013-06-30 15:47:00,87.3,76.6,29.75,South,180,3.0,9.0,71,0.00,,,0.00,meteohub,2013-06-30 19:47:00,
2013-06-30 15:52:00,87.4,76.5,29.75,East,90,2.0,14.0,70,0.00,,,0.00,meteohub,2013-06-30 19:52:00,
2013-06-30 15:57:00,87.3,76.3,29.74,SW,225,10.0,14.0,70,0.00,,,0.00,meteohub,2013-06-30 19:57:00,
2013-06-30 16:02:00,88.5,76.6,29.75,SW,225,9.0,14.0,68,0.00,,,0.00,meteohub,2013-06-30 20:02:00,
2013-06-30 16:07:00,89.6,77.5,29.75,South,180,4.0,11.0,68,0.00,,,0.00,meteohub,2013-06-30 20:07:00,
2013-06-30 16:12:00,89.4,76.6,29.76,SW,225,9.0,11.0,66,0.00,,,0.00,meteohub,2013-06-30 20:12:00,
2013-06-30 16:17:00,88.9,77.4,29.75,SW,225,8.0,11.0,69,0.00,,,0.00,meteohub,2013-06-30 20:17:00,
2013-06-30 16:22:00,88.3,76.8,29.76,SW,225,10.0,10.0,69,0.00,,,0.00,meteohub,2013-06-30 20:22:00,
2013-06-30 16:27:00,87.8,76.8,29.76,ESE,113,4.0,10.0,70,0.00,,,0.00,meteohub,2013-06-30 20:27:00,
2013-06-30 16:32:00,87.1,76.1,29.76,East,90,14.0,14.0,70,0.00,,,0.00,meteohub,2013-06-30 20:32:00,
2013-06-30 16:37:00,87.1,76.5,29.76,South,180,4.0,14.0,71,0.00,,,0.00,meteohub,2013-06-30 20:37:00,
2013-06-30 16:42:00,88.3,77.7,29.76,East,90,5.0,14.0,71,0.00,,,0.00,meteohub,2013-06-30 20:42:00,
2013-06-30 16:47:00,90.3,77.0,29.76,NE,45,8.0,14.0,65,0.00,,,0.00,meteohub,2013-06-30 20:47:00,
2013-06-30 16:52:00,91.8,77.4,29.76,South,180,8.0,13.0,63,0.00,,,0.00,meteohub,2013-06-30 20:52:00,
2013-06-30 16:57:00,91.2,77.4,29.75,SE,135,7.0,13.0,64,0.00,,,0.00,meteohub,2013-06-30 20:57:00,
2013-06-30 17:02:00,91.9,77.0,29.75,NE,45,12.0,14.0,62,0.00,,,0.00,meteohub,2013-06-30 21:02:00,
2013-06-30 17:07:00,90.0,76.6,29.75,South,180,5.0,14.0,65,0.00,,,0.00,meteohub,2013-06-30 21:07:00,
2013-06-30 17:12:00,89.1,76.6,29.75,SW,225,7.0,12.0,67,0.00,,,0.00,meteohub,2013-06-30 21:12:00,
2013-06-30 17:17:00,88.9,76.5,29.75,SW,225,10.0,12.0,67,0.00,,,0.00,meteohub,2013-06-30 21:17:00,
2013-06-30 17:22:00,88.7,76.8,29.75,South,180,5.0,12.0,68,0.00,,,0.00,meteohub,2013-06-30 21:22:00,
2013-06-30 17:27:00,88.5,76.6,29.76,SW,225,6.0,11.0,68,0.00,,,0.00,meteohub,2013-06-30 21:27:00,
2013-06-30 17:32:00,89.1,76.6,29.75,NW,315,9.0,11.0,67,0.00,,,0.00,meteohub,2013-06-30 21:32:00,
2013-06-30 17:37:00,88.7,76.8,29.75,South,180,10.0,11.0,68,0.00,,,0.00,meteohub,2013-06-30 21:37:00,
2013-06-30 17:42:00,90.1,76.8,29.75,NW,315,11.0,11.0,65,0.00,,,0.00,meteohub,2013-06-30 21:42:00,
2013-06-30 17:47:00,89.1,76.6,29.75,South,180,4.0,11.0,67,0.00,,,0.00,meteohub,2013-06-30 21:47:00,
2013-06-30 17:52:00,87.8,76.8,29.76,SW,225,5.0,11.0,70,0.00,,,0.00,meteohub,2013-06-30 21:52:00,
2013-06-30 17:57:00,86.9,76.3,29.76,South,180,10.0,11.0,71,0.00,,,0.00,meteohub,2013-06-30 21:57:00,
2013-06-30 18:03:00,86.4,76.3,29.76,South,180,4.0,11.0,72,0.00,,,0.00,meteohub,2013-06-30 22:03:00,
2013-06-30 18:08:00,86.4,75.9,29.76,South,180,10.0,11.0,71,0.00,,,0.00,meteohub,2013-06-30 22:08:00,
2013-06-30 18:10:00,86.4,75.9,29.76,SE,135,11.0,11.0,71,0.00,,,0.00,meteohub,2013-06-30 22:10:00,
2013-06-30 18:15:00,86.5,76.5,29.76,West,270,4.0,11.0,72,0.00,,,0.00,meteohub,2013-06-30 22:15:00,
2013-06-30 18:20:00,86.5,75.9,29.76,SSW,203,4.0,11.0,71,0.00,,,0.00,meteohub,2013-06-30 22:20:00,
2013-06-30 18:22:00,86.5,75.9,29.76,SSW,203,7.0,11.0,71,0.00,,,0.00,meteohub,2013-06-30 22:22:00,
2013-06-30 18:27:00,86.5,75.9,29.76,SW,225,4.0,11.0,71,0.00,,,0.00,meteohub,2013-06-30 22:27:00,
2013-06-30 18:32:00,86.5,75.9,29.76,SW,225,10.0,11.0,71,0.00,,,0.00,meteohub,2013-06-30 22:32:00,
2013-06-30 18:37:00,86.5,75.9,29.76,SW,225,8.0,10.0,71,0.00,,,0.00,meteohub,2013-06-30 22:37:00,
2013-06-30 18:42:00,86.2,76.1,29.76,South,180,10.0,10.0,72,0.00,,,0.00,meteohub,2013-06-30 22:42:00,
2013-06-30 18:47:00,86.0,76.3,29.76,South,180,2.0,11.0,73,0.00,,,0.00,meteohub,2013-06-30 22:47:00,
2013-06-30 18:52:00,86.2,76.5,29.76,South,180,4.0,11.0,73,0.00,,,0.00,meteohub,2013-06-30 22:52:00,
2013-06-30 18:57:00,86.2,76.1,29.76,SW,225,9.0,10.0,72,0.00,,,0.00,meteohub,2013-06-30 22:57:00,
2013-06-30 19:02:00,86.0,75.9,29.77,SE,135,5.0,12.0,72,0.00,,,0.00,meteohub,2013-06-30 23:02:00,
2013-06-30 19:07:00,85.8,76.1,29.77,South,180,5.0,12.0,73,0.00,,,0.00,meteohub,2013-06-30 23:07:00,
2013-06-30 19:12:00,85.8,77.0,29.77,SSW,203,5.0,12.0,75,0.00,,,0.00,meteohub,2013-06-30 23:12:00,
2013-06-30 19:17:00,85.6,76.8,29.77,SE,135,8.0,10.0,75,0.00,,,0.00,meteohub,2013-06-30 23:17:00,
2013-06-30 19:22:00,85.3,76.1,29.77,South,180,12.0,12.0,74,0.00,,,0.00,meteohub,2013-06-30 23:22:00,
2013-06-30 19:27:00,84.7,75.9,29.78,SSW,203,7.0,13.0,75,0.00,,,0.00,meteohub,2013-06-30 23:27:00,
2013-06-30 19:32:00,83.5,76.3,29.78,South,180,6.0,13.0,79,0.00,,,0.00,meteohub,2013-06-30 23:32:00,
2013-06-30 19:37:00,82.2,76.5,29.79,South,180,2.0,13.0,83,0.00,,,0.00,meteohub,2013-06-30 23:37:00,
2013-06-30 19:42:00,81.5,76.5,29.79,SW,225,2.0,10.0,85,0.00,,,0.00,meteohub,2013-06-30 23:42:00,
2013-06-30 19:47:00,81.1,76.5,29.80,South,180,1.0,10.0,86,0.00,,,0.00,meteohub,2013-06-30 23:47:00,
2013-06-30 19:52:00,81.0,76.6,29.79,SE,135,4.0,6.0,87,0.00,,,0.00,meteohub,2013-06-30 23:52:00,
2013-06-30 19:57:00,80.6,76.3,29.80,SW,225,5.0,8.0,87,0.00,,,0.00,meteohub,2013-06-30 23:57:00,
2013-06-30 20:02:00,80.2,76.6,29.80,West,270,8.0,8.0,89,0.00,,,0.00,meteohub,2013-07-01 00:02:00,
2013-06-30 20:07:00,79.5,77.7,29.80,SW,225,3.0,8.0,94,0.01,,,0.01,meteohub,2013-07-01 00:07:00,
2013-06-30 20:12:00,78.8,78.3,29.80,South,180,4.0,8.0,98,0.02,,,0.02,meteohub,2013-07-01 00:12:00,
2013-06-30 20:17:00,78.4,78.1,29.80,South,180,4.0,8.0,99,0.02,,,0.02,meteohub,2013-07-01 00:17:00,
2013-06-30 20:22:00,78.3,77.9,29.81,South,180,2.0,8.0,99,0.02,,,0.02,meteohub,2013-07-01 00:22:00,
2013-06-30 20:27:00,77.9,77.5,29.80,South,180,3.0,5.0,99,0.04,,,0.04,meteohub,2013-07-01 00:27:00,
2013-06-30 20:32:00,77.5,77.2,29.79,SE,135,3.0,5.0,99,0.04,,,0.04,meteohub,2013-07-01 00:32:00,
2013-06-30 20:37:00,77.4,77.0,29.80,South,180,5.0,8.0,99,0.04,,,0.04,meteohub,2013-07-01 00:37:00,
2013-06-30 20:42:00,77.2,76.8,29.81,South,180,2.0,8.0,99,0.04,,,0.04,meteohub,2013-07-01 00:42:00,
2013-06-30 20:47:00,77.4,77.0,29.81,SW,225,4.0,8.0,99,0.04,,,0.04,meteohub,2013-07-01 00:47:00,
2013-06-30 20:52:00,77.4,77.0,29.81,South,180,1.0,5.0,99,0.04,,,0.04,meteohub,2013-07-01 00:52:00,
2013-06-30 20:57:00,77.4,77.0,29.81,South,180,3.0,4.0,99,0.04,,,0.04,meteohub,2013-07-01 00:57:00,
2013-06-30 21:02:00,77.2,76.8,29.81,South,180,1.0,4.0,99,0.04,,,0.04,meteohub,2013-07-01 01:02:00,
2013-06-30 21:07:00,77.4,77.0,29.81,South,180,3.0,4.0,99,0.01,,,0.04,meteohub,2013-07-01 01:07:00,
2013-06-30 21:12:00,77.4,77.0,29.81,South,180,2.0,4.0,99,0.01,,,0.04,meteohub,2013-07-01 01:12:00,
2013-06-30 21:17:00,77.4,77.0,29.81,SSW,203,2.0,4.0,99,0.01,,,0.04,meteohub,2013-07-01 01:17:00,
2013-06-30 21:19:00,77.4,77.0,29.81,SW,225,2.0,4.0,99,0.01,,,0.04,meteohub,2013-07-01 01:19:00,
2013-06-30 21:25:00,77.5,77.2,29.81,South,180,1.0,4.0,99,0.00,,,0.04,meteohub,2013-07-01 01:25:00,
2013-06-30 21:30:00,77.5,77.2,29.82,South,180,2.0,3.0,99,0.00,,,0.04,meteohub,2013-07-01 01:30:00,
2013-06-30 21:35:00,77.7,77.4,29.82,South,180,1.0,2.0,99,0.00,,,0.04,meteohub,2013-07-01 01:35:00,
2013-06-30 21:40:00,77.7,77.4,29.81,SW,225,1.0,3.0,99,0.00,,,0.04,meteohub,2013-07-01 01:40:00,
2013-06-30 21:45:00,77.9,77.5,29.82,SW,225,1.0,3.0,99,0.00,,,0.04,meteohub,2013-07-01 01:45:00,
2013-06-30 21:50:00,77.9,77.5,29.82,South,180,1.0,3.0,99,0.00,,,0.04,meteohub,2013-07-01 01:50:00,
2013-06-30 21:55:00,77.9,77.5,29.81,SW,225,1.0,2.0,99,0.00,,,0.04,meteohub,2013-07-01 01:55:00,
2013-06-30 22:00:00,77.9,77.5,29.81,SW,225,1.0,2.0,99,0.00,,,0.04,meteohub,2013-07-01 02:00:00,
2013-06-30 22:05:00,77.9,77.5,29.81,South,180,1.0,2.0,99,0.00,,,0.04,meteohub,2013-07-01 02:05:00,
2013-06-30 22:11:00,78.1,77.7,29.82,South,180,2.0,2.0,99,0.00,,,0.04,meteohub,2013-07-01 02:11:00,
2013-06-30 22:16:00,78.1,77.7,29.82,South,180,1.0,3.0,99,0.00,,,0.04,meteohub,2013-07-01 02:16:00,
2013-06-30 22:21:00,78.1,77.7,29.82,SW,225,1.0,3.0,99,0.00,,,0.04,meteohub,2013-07-01 02:21:00,
2013-06-30 22:26:00,78.1,77.7,29.83,South,180,1.0,3.0,99,0.00,,,0.04,meteohub,2013-07-01 02:26:00,
2013-06-30 22:31:00,78.1,77.7,29.83,SW,225,1.0,1.0,99,0.00,,,0.04,meteohub,2013-07-01 02:31:00,
2013-06-30 22:36:00,78.1,77.7,29.83,South,180,1.0,1.0,99,0.00,,,0.04,meteohub,2013-07-01 02:36:00,
2013-06-30 22:41:00,78.3,77.9,29.82,South,180,2.0,2.0,99,0.00,,,0.04,meteohub,2013-07-01 02:41:00,
2013-06-30 22:42:00,78.3,77.9,29.82,East,90,1.0,2.0,99,0.00,,,0.04,meteohub,2013-07-01 02:42:00,
2013-06-30 22:47:00,78.4,78.1,29.83,South,180,1.0,2.0,99,0.00,,,0.04,meteohub,2013-07-01 02:47:00,
2013-06-30 22:53:00,78.4,78.1,29.83,SW,225,4.0,4.0,99,0.00,,,0.04,meteohub,2013-07-01 02:53:00,
2013-06-30 22:58:00,78.6,78.3,29.82,South,180,4.0,4.0,99,0.00,,,0.04,meteohub,2013-07-01 02:58:00,
2013-06-30 23:03:00,78.6,78.3,29.83,South,180,2.0,4.0,99,0.00,,,0.04,meteohub,2013-07-01 03:03:00,
2013-06-30 23:08:00,78.8,78.4,29.83,South,180,2.0,4.0,99,0.00,,,0.04,meteohub,2013-07-01 03:08:00,
2013-06-30 23:13:00,78.8,78.4,29.82,South,180,2.0,4.0,99,0.00,,,0.04,meteohub,2013-07-01 03:13:00,
2013-06-30 23:18:00,79.0,78.6,29.82,South,180,1.0,4.0,99,0.00,,,0.04,meteohub,2013-07-01 03:18:00,
2013-06-30 23:23:00,79.0,78.6,29.82,South,180,2.0,4.0,99,0.00,,,0.04,meteohub,2013-07-01 03:23:00,
2013-06-30 23:28:00,79.2,78.8,29.83,WSW,248,1.0,4.0,99,0.00,,,0.04,meteohub,2013-07-01 03:28:00,
2013-06-30 23:34:00,79.2,78.8,29.82,South,180,2.0,4.0,99,0.00,,,0.04,meteohub,2013-07-01 03:34:00,
2013-06-30 23:39:00,79.2,78.8,29.82,South,180,2.0,4.0,99,0.00,,,0.04,meteohub,2013-07-01 03:39:00,
2013-06-30 23:44:00,79.0,78.6,29.83,South,180,1.0,4.0,99,0.00,,,0.04,meteohub,2013-07-01 03:44:00,
2013-06-30 23:49:00,79.0,78.6,29.83,South,180,2.0,3.0,99,0.00,,,0.04,meteohub,2013-07-01 03:49:00,
2013-06-30 23:54:00,79.0,78.6,29.83,SE,135,2.0,3.0,99,0.00,,,0.04,meteohub,2013-07-01 03:54:00,